weather.gov     
National Weather Service

Regional Weather Roundup
NWS Homepage
This page is being discontinued on March 12, 2014.
The same data is available at this site. Please update your bookmarks.
Thank you, and we apologize for the inconvenience.
Please send an email to SR-SRH.Webmaster@noaa.gov with any concerns.


Current Version
Previous Version:    01  02  03  04  05  06  07  08  09  10  11  12  13  14  15  16  17  18  19  20  21  22  23  24  25  26  27  28  29  30  
   31  32  33  34  35  36  37  38  39  40  41  42  43  44  45  46  47  48  49  50  51  52  53  54  
[Printable]
811
ASUS44 KMEG 241300
RWRMEG
MEMPHIS CWA HOURLY WEATHER ROUNDUP
NATIONAL WEATHER SERVICE MEMPHIS TN
800 AM CDT THU JUL 24 2014

...WEST TENNESSEE...

CITY           SKY/WX    TMP DP  RH WIND       PRES   REMARKS
MEMPHIS INTL   MOSUNNY   75  69  81 N10       30.06R
NWS MEMPHIS      N/A     73 N/A N/A MISG        N/A
JACKSON        PTSUNNY   69  64  84 N10       30.06R
DYERSBURG      SUNNY     66  54  63 N7        30.08R
PARIS          SUNNY     63  57  82 N6        30.06R


...EASTERN ARKANSAS...

CITY           SKY/WX    TMP DP  RH WIND       PRES   REMARKS
JONESBORO      SUNNY     70  57  63 N6        30.09R
WEST MEMPHIS   CLOUDY    72  70  93 N9        30.05R
BATESVILLE     CLOUDY    70  63  78 CALM      30.11R
WALNUT RIDGE   MOSUNNY   70  57  64 N9        30.10R
BLYTHEVILLE    SUNNY     67  60  78 N15       30.08R
STUTTGART      CLOUDY    72  70  94 N10       30.07R
PINE BLUFF     PTSUNNY   71  70  96 N8        30.06R
MONTICELLO     SUNNY     74  70  87 CALM      30.04R


...NORTH MISSISSIPPI...

CITY           SKY/WX    TMP DP  RH WIND       PRES   REMARKS
TUPELO         MOSUNNY   73  68  84 N5        30.03R
OLIVE BRANCH   MOSUNNY   70  70 100 N8        30.06R
CLARKSDALE     MOSUNNY   72  72 100 CALM      30.06R
GREENWOOD      FOG       72  71  97 N6        30.03R VSB 1/4
COLUMBUS       CLOUDY    72  72 100 W2        30.02R FOG
STARKVILLE     FAIR      72  70  94 NW3       30.02R
GOLDEN TRIANGL FOG       72  68  88 CALM      30.02R VSB 1/2


...SOUTHEAST MISSOURI...

CITY           SKY/WX    TMP DP  RH WIND       PRES   REMARKS
WEST PLAINS    SUNNY     67  56  67 NE5       30.16R
POPLAR BLUFF   SUNNY     67  51  56 N5        30.10R
CAPE GIRARDEAU SUNNY     64  53  67 N10       30.10R


...NORTHWEST ALABAMA...

CITY           SKY/WX    TMP DP  RH WIND       PRES   REMARKS
MUSCLE SHOALS  CLOUDY    73  68  84 NW5       30.04R HAZE


...MIDDLE TENNESSEE...

CITY           SKY/WX    TMP DP  RH WIND       PRES   REMARKS
NASHVILLE      CLOUDY    73  68  84 N9        30.02R
CLARKSVILLE    CLOUDY    69  59  70 N9        30.03R


...WESTERN KENTUCKY...

CITY           SKY/WX    TMP DP  RH WIND       PRES   REMARKS
PADUCAH        SUNNY     65  54  67 N9        30.07R
FORT CAMPBELL  MOSUNNY   68  61  77 NW8       30.03R


...CENTRAL ARKANSAS...

CITY           SKY/WX    TMP DP  RH WIND       PRES   REMARKS
LITTLE ROCK    CLOUDY    72  68  87 N5        30.08R


SKY/WX REPORTED AS FAIR MEANS FEW OR NO CLOUDS BELOW
12 THOUSAND FEET.





U.S. Dept. of Commerce
NOAA National Weather Service
1325 East West Highway
Silver Spring, MD 20910
E-mail: w-nws.webmaster@noaa.gov
Page last modified: May 16, 2007
NATIONAL WEATHER SERVICE: for Safety, for Work, for Fun - FOR LIFE